Location: Unspecified
(35.7250°N, 0.0000°E)
Time: 10:02:32
(UTC+00:00)

Tiros 1 - Pass Details

Date: 25 June 2019
Orbit: 630 x 664 km, 48.4° (Epoch: 19 July)

Event Time Altitude Azimuth Distance (km) Brightness Sun altitude
Rises 04:06:32 0° 307° (NW) 2,926 10.3 -7.4°
Reaches altitude 10° 04:08:53 10° 310° (NW) 2,012 9.5 -7.1°
Maximum altitude 04:13:30 72° 35° (NE) 661 7.4 -6.3°
Drops below altitude 10° 04:18:05 10° 120° (ESE) 1,998 10.0 -5.5°
Sets 04:20:24 0° 122° (ESE) 2,904 10.8 -5.1°
